Weather History for KCDC - December, 2012

Change the Weather History Date:

Thursday, December 6, 2012

  Actual Average Record
Temperature  
Mean Temperature 47 °F 30 °F  
Max Temperature 56 °F 43 °F 62 °F (1958)
Min Temperature 37 °F 17 °F -19 °F (2013)
Degree Days  
Heating Degree Days 18 35  
Month to date heating degree days 124 207  
Since 1 July heating degree days 1260 1649  
Cooling Degree Days 0 0  
Month to date cooling degree days 0 0  
Year to date cooling degree days 715 588  
Moisture  
Dew Point 33 °F    
Average Humidity 64    
Maximum Humidity 85    
Minimum Humidity 43    
Precipitation  
Precipitation T in 0.03 in 0.48 in (1986)
Month to date precipitation T 0.15  
Year to date precipitation 11.45 10.62  
Sea Level Pressure  
Sea Level Pressure 29.94 in    
Wind  
Wind Speed 3 mph (ESE)    
Max Wind Speed 9 mph    
Max Gust Speed 12 mph    
Visibility 10 miles    
Events Rain    
T = Trace of Precipitation, MM = Missing Value Source: NWS Daily Summary

Daily Weather History Graph

Daily Weather History Graph

Search for Another Location

Airport or City:

Trip Planner

Search our weather history database for the weather conditions in past years. The results will help you decide how hot, cold, wet, or windy it might be!

Date:

Astronomy

Dec. 06, 2012 Rise Set
Actual Time 7:33 AM MST 5:13 PM MST
Civil Twilight 7:04 AM MST 5:42 PM MST
Nautical Twilight 6:32 AM MST 6:15 PM MST
Astronomical Twilight 6:00 AM MST 6:47 PM MST
Moon 12:01 AM MST (12/6) 12:34 PM MST (12/6)
Length of Visible Light 10h 37m
Length of Day
9h 39m
Waning Gibbous, 48% of the Moon is Illuminated
Dec 6
Waning Gibbous
Dec 13
New
Dec 19
First Quarter
Dec 28
Full
Jan 4
Last Quarter

Hourly Weather History & Observations

Time (MST) Temp. Windchill Dew Point Humidity Pressure Visibility Wind Dir Wind Speed Gust Speed Precip Events Conditions
12:53 AM 39.9 °F - 26.1 °F 58% 29.95 in 10.0 mi Calm Calm - N/A   Overcast
1:53 AM 39.9 °F - 26.1 °F 58% 29.94 in 10.0 mi Calm Calm - N/A   Overcast
2:53 AM 42.1 °F 39.2 °F 30.9 °F 65% 29.94 in 10.0 mi East 4.6 mph - 0.00 in   Overcast
3:53 AM 41.0 °F - 32.0 °F 70% 29.95 in 10.0 mi Calm Calm - 0.00 in Rain Light Rain
4:53 AM 41.0 °F 38.0 °F 35.1 °F 79% 29.96 in 10.0 mi South 4.6 mph - 0.00 in   Overcast
5:53 AM 39.0 °F 36.8 °F 36.0 °F 89% 29.96 in 10.0 mi South 3.5 mph - 0.00 in   Overcast
6:53 AM 39.0 °F 34.8 °F 36.0 °F 89% 29.98 in 10.0 mi ENE 5.8 mph - N/A   Overcast
7:53 AM 39.0 °F - 36.0 °F 89% 29.98 in 10.0 mi Calm Calm - N/A   Overcast
8:53 AM 43.0 °F - 37.0 °F 80% 29.97 in 10.0 mi Calm Calm - N/A   Mostly Cloudy
9:53 AM 46.9 °F - 37.0 °F 68% 29.98 in 10.0 mi Calm Calm - N/A   Clear
10:53 AM 50.0 °F - 37.9 °F 63% 29.96 in 10.0 mi ENE 4.6 mph - N/A   Clear
11:53 AM 52.0 °F - 39.0 °F 61% 29.94 in 10.0 mi NNW 4.6 mph - N/A   Partly Cloudy
12:53 PM 55.9 °F - 37.0 °F 49% 29.91 in 10.0 mi NNE 6.9 mph - N/A   Mostly Cloudy
1:53 PM 53.1 °F - 35.1 °F 50% 29.89 in 10.0 mi Variable 4.6 mph - N/A   Overcast
2:53 PM 55.0 °F - 35.1 °F 47% 29.86 in 10.0 mi SW 4.6 mph - N/A   Partly Cloudy
3:53 PM 55.0 °F - 33.1 °F 43% 29.86 in 10.0 mi Calm Calm - N/A   Clear
4:53 PM 51.1 °F - 32.0 °F 48% 29.88 in 10.0 mi North 3.5 mph - N/A   Clear
5:53 PM 43.0 °F 41.3 °F 30.9 °F 62% 29.91 in 10.0 mi Variable 3.5 mph - N/A   Clear
6:53 PM 41.0 °F 36.4 °F 32.0 °F 70% 29.92 in 10.0 mi SE 6.9 mph - N/A   Clear
7:53 PM 41.0 °F 37.1 °F 30.9 °F 67% 29.92 in 10.0 mi SE 5.8 mph - N/A   Clear
8:53 PM 37.0 °F - 28.9 °F 73% 29.94 in 10.0 mi Calm Calm - N/A   Clear
9:53 PM 35.1 °F - 28.0 °F 76% 29.95 in 10.0 mi Calm Calm - N/A   Scattered Clouds
10:53 PM 32.0 °F 27.5 °F 27.0 °F 82% 29.95 in 10.0 mi NW 4.6 mph - N/A   Scattered Clouds
11:53 PM 35.1 °F 31.0 °F 28.9 °F 78% 29.94 in 10.0 mi SSE 4.6 mph - N/A   Scattered Clouds